Location: Bergnerzell
(49.1816°N, 10.2565°E)
Time: 10:26:56
(UTC+00:00)

deb Meteor - Visible Passes

Search period start: 06 October 2024 00:00
Search period end: 16 October 2024 00:00
Orbit: 651 x 663 km, 81.2° (Epoch: 06 October)

Date Brightness Start Highest point End Pass type
(mag) Time Alt. Az. Time Alt. Az. Time Alt. Az.
06 Oct 7.2 01:55:46 10° N 01:57:48 23° NNE 01:57:48 23° NNE visible
06 Oct 7.3 03:35:01 10° NW 03:35:40 13° NW 03:35:40 13° NW visible
07 Oct 8.4 00:47:49 10° NNE 00:47:59 10° NNE 00:47:59 10° NNE visible
07 Oct 7.5 02:24:56 10° NNW 02:25:52 16° NNW 02:25:52 16° NNW visible
08 Oct 8.2 01:15:55 10° N 01:16:13 11° NNE 01:16:13 11° NNE visible
08 Oct 8.2 17:17:34 10° W 17:19:45 13° WNW 17:21:55 10° NNW visible
